Regional Weather Roundup
Issued by NWS

Home | Current Version | Previous Version | Graphics & Text | Print | Product List | Glossary Off
Versions: 1 2 3 4 5 6 7 8 9 10 11 12 13 14 15 16 17 18 19 20 21 22 23 24 25 26 27 28 29 30 31 32 33 34 35 36 37 38 39 40 41 42 43 44 45 46 47 48 49 50

000
ASUS43 KMPX 292101
RWRMN
WEATHER ROUNDUP FOR MINNESOTA
NATIONAL WEATHER SERVICE TWIN CITIES/CHANHASSEN MN
400 PM CDT FRI JUL 29 2016


NOTE: "FAIR" INDICATES FEW OR NO CLOUDS BELOW 12,000 FEET WITH NO
SIGNIFICANT WEATHER AND/OR OBSTRUCTIONS TO VISIBILITY. N/A MEANS
CURRENT SKY AND/OR WEATHER CONDITIONS ARE NOT AVAILABLE.

MNZ060>063-068>070-292200-
   Twin Cities Metro

CITY           SKY/WX    TMP DP  RH WIND       PRES   REMARKS
TWIN CITIES    MOSUNNY   78  50  37 N9        30.03F
ST PAUL        SUNNY     77  52  41 N9        30.03F
CRYSTAL        SUNNY     77  47  34 N13       30.03F
BLAINE         MOSUNNY   79  50  36 N8        30.04F
LAKEVILLE      SUNNY     75  52  43 N3        30.03F
EDEN PRAIRIE   SUNNY     80  49  33 N6        30.02F
LAKEVILLE      SUNNY     75  52  43 N3        30.03F
SOUTH ST PAUL  SUNNY     77  47  34 N7        30.03F
LAKE ELMO      FAIR      77  54  44 NE7       30.04F
$$
MNZ001>005-007-008-013>017-022>024-027-028-292200-
   Northwest Minnesota

CITY           SKY/WX    TMP DP  RH WIND       PRES   REMARKS
BEMIDJI        MOSUNNY   77  58  50 NE3       30.05F
HALLOCK        SUNNY     79  54  41 NE3       30.02F
ROSEAU         SUNNY     79  61  53 CALM      30.04F
WARROAD        SUNNY     75  61  60 NE8       30.05F
THIEF RVR FALL CLOUDY    76  53  44 SE5       30.05F
CROOKSTON      MOSUNNY   77  55  47 CALM      30.04F
FOSSTON        SUNNY     79  55  44 CALM      30.05F
DETROIT LAKES  MOSUNNY   77  55  47 N6        30.06F
MOORHEAD       CLOUDY    79  61  53 CALM      30.04F
PARK RAPIDS    PTSUNNY   77  56  48 VRB3      30.05F
MAHNOMEN       FAIR      77  51  40 W5        30.04F
$$
MNZ006-009>011-018-025>026-292200-
   North Central Minnesota

CITY           SKY/WX    TMP DP  RH WIND       PRES   REMARKS
BAUDETTE       SUNNY     80  55  42 S8        30.04F
FLAG ISLAND    SUNNY     75  52  43 SE5       30.04F
INTL FALLS     SUNNY     78  56  46 VRB7      30.05F
WASKISH        MOSUNNY   79  61  53 NW6       30.05F
BIG FORK       SUNNY     79  55  44 S7        30.07F
LONGVILLE      SUNNY     77  54  44 CALM      30.06F
GRAND RAPIDS   SUNNY     75  54  47 E5        30.09F
CRANE LAKE     MOSUNNY   75  48  38 SW5       30.09F
ORR            PTSUNNY   73  52  46 CALM      30.05F
COOK           MOSUNNY   75  52  43 CALM      30.08F
WALKER         CLOUDY    76  58  53 SE3       30.05F
$$
MNZ012-019>021-037-292200-
   Northeast Minnesota

CITY           SKY/WX    TMP DP  RH WIND       PRES   REMARKS
DULUTH         MOSUNNY   73  49  42 VRB6      30.09F
ELY            PTSUNNY   77  46  33 E6        30.08F
HIBBING        MOSUNNY   74  50  42 CALM      30.08F
EVELETH        MOSUNNY   76  50  41 NE5       30.10S
DULUTH HARBOR  SUNNY     72  59  64 NE10      30.09F
TWO HARBORS    SUNNY     77  55  47 E6        30.08F
SILVER BAY     SUNNY     75  48  38 SE5       30.08F
GRAND MARAIS     N/A     67  56  67 SW5       30.09F
G MARAIS ARPRT SUNNY     70  45  40 S3        30.13F
$$
MNZ029>031-032-039>041-046>048-054>057-064-292200-
   West Central Minnesota

CITY           SKY/WX    TMP DP  RH WIND       PRES   REMARKS
FERGUS FALLS   CLOUDY    66  61  82 SE17G24   30.08R
WHEATON        CLOUDY    79  63  57 S7        30.07F
MORRIS         MOSUNNY   79  57  47 S5        30.05F
ALEXANDRIA     MOSUNNY   76  55  48 VRB5      30.08F
ELBOW LAKE     PTSUNNY   76  62  62 SW8       30.06F
WADENA         PTSUNNY   73  59  60 S6        30.06S
GLENWOOD       SUNNY     79  55  44 CALM      30.08F
APPLETON       SUNNY     79  52  38 S5        30.05F
BENSON         SUNNY     79  52  38 E3        30.06F
ORTONVILLE     PTSUNNY   79  57  47 CALM      30.06F
MADISON        CLOUDY    79  55  44 CALM      30.06F
WILLMAR        FAIR      77  55  47 CALM      30.07F
$$
MNZ033>034-036-042>043-049>051-058-059-292200-
   Central Minnesota

CITY           SKY/WX    TMP DP  RH WIND       PRES   REMARKS
ST CLOUD       SUNNY     78  56  46 N7        30.06F
SAUK CENTRE    FAIR      75  55  49 CALM      30.07F
PAYNESVILLE    SUNNY     75  53  46 NW7       30.07F
AITKIN         MOSUNNY   77  52  41 CALM      30.06F
PINE RIVER     SUNNY     75  57  53 SE7       30.09F
BRAINERD       SUNNY     76  53  44 E5        30.07F
STAPLES        MOSUNNY   79  55  44 S7        30.06F
LONG PRAIRIE   FAIR      73  55  53 NE3       30.07F
LITTLE FALLS   MOSUNNY   75  52  43 E5        30.07F
LITCHFIELD     MOSUNNY   75  57  53 N6        30.07S
BUFFALO        SUNNY     77  51  40 N6        30.06S
MAPLE LAKE     SUNNY     77  55  47 NE9       30.07S
HUTCHINSON     SUNNY     78  57  48 N6        30.07S
$$
MNZ037-044-045-052-053-292200-
   East Central Minnesota

CITY           SKY/WX    TMP DP  RH WIND       PRES   REMARKS
PRINCETON      SUNNY     79  54  41 N10       30.06F
MORA           SUNNY     73  52  46 E5        30.08S
CAMBRIDGE      SUNNY     77  55  47 N7        30.04F
RUSH CITY      SUNNY     75  54  47 N7        30.06F
MOOSE LAKE     SUNNY     73  46  38 NE3       30.06F
HINCKLEY       FAIR      75  54  46 NE5       30.06F
CLOQUET        SUNNY     73  41  31 NE6       30.09F
MCGREGOR       MOSUNNY   77  52  41 NE6       30.07F
$$
MNZ071>073-080-081-089-090-097-098-292200-
   Southwest Minnesota

CITY           SKY/WX    TMP DP  RH WIND       PRES   REMARKS
MONTEVIDEO     MOSUNNY   81  55  41 CALM      30.08S
GRANITE FALLS  MOSUNNY   80  58  48 NE6       30.07F
CANBY          CLOUDY    79  56  44 E5        30.07F
MARSHALL       CLOUDY    76  56  49 VRB3      30.06F
REDWOOD FALLS  MOSUNNY   79  53  40 N7        30.05F
OLIVIA         SUNNY     77  54  44 NE3       30.06S
PIPESTONE      CLOUDY    77  54  44 NE5       30.08F
WINDOM         SUNNY     75  54  46 N8        30.06S
WORTHINGTON    MOSUNNY   75  57  53 NE10      30.07F
JACKSON        SUNNY     77  52  41 NE9       30.06F
TRACY          MOSUNNY   77  58  50 NE6       30.07F
SLAYTON        MOSUNNY   74  55  52 N5        30.08F
$$
MNZ065>067-074>077-082>085-091>093-292200-
   South Central Minnesota

CITY           SKY/WX    TMP DP  RH WIND       PRES   REMARKS
MANKATO        SUNNY     75  55  50 NE8       30.04S
NEW ULM        SUNNY     77  52  41 N12       30.04F
ST JAMES       SUNNY     72  52  49 NE10      30.04F
FAIRMONT       PTSUNNY   75  61  60 N8        30.03S
GLENCOE        SUNNY     77  58  51 N10       30.04F
FARIBAULT      SUNNY     77  57  50 N8        30.03F
OWATONNA       SUNNY     75  55  50 N6        30.03F
WASECA         SUNNY     73  54  49 N9        30.04F
ALBERT LEA     MOSUNNY   75  61  60 NE9       30.02F
$$
MNZ078>079-086>088-094>096-292200-
   Southeast Minnesota

CITY           SKY/WX    TMP DP  RH WIND       PRES   REMARKS
ROCHESTER      MOSUNNY   76  61  59 N14       30.03F
RED WING       SUNNY     79  48  34 NE5       30.01F
STANTON        SUNNY     77  52  41 N8        30.02F
DODGE CENTER   MOSUNNY   75  57  53 NE10      30.03F
WINONA         MOSUNNY   79  61  53 N6        30.00F
AUSTIN         SUNNY     75  59  57 NE8       30.02S
PRESTON        CLOUDY    71  60  69 NE5       30.03R
$$
ABBREVIATIONS USED IN REMARKS
   TC - TEMPERATURES IN CELSIUS
  WCI - WIND CHILL INDEX
   HX - HEAT INDEX
  VSB - VISIBILITY
$$




USA.gov is the U.S. government's official web portal to all federal, state and local government web resources and services.